Meteo Giornale » Osservazioni meteo Gran Bretagna » Waddington

ore: 13:21 - Osservazioni Meteo Waddington
Lat. 53° 10' N Lon. 0° 31' W Alt. 68 metri s.l.m.

nuvoloso Europe/London

18 °C

Nuvoloso

Temp. 24 Ore

10 °C

18 °C

Sud

40.7 Km/h

Dew point 8 °C

Umidità 51 %

Visibilità  10 Km

Il sole sorge alle ore 06:57

Il sole tramonta alle ore 18:48

Data e Ora Cielo e Fenomeni T °C DP °C Um. % Pres. hPa Vis. km Vento km/h
Oggi h: 13:21 nuvoloso Nuvoloso 18 8 51 1012 10 S 40.7
Oggi h: 12:50 nuvoloso Nuvoloso 18 8 51 1013 10 S 37
Oggi h: 12:19 nuvoloso Nuvoloso 17 9 59 1013 10 S 37
Oggi h: 11:50 poco_nuvoloso Poco Nuvoloso 16 9 63 1014 10 S 37
Oggi h: 11:20 poco_nuvoloso Poco Nuvoloso 16 9 63 1014 10 S 31.5
Oggi h: 10:50 nuvoloso Nuvoloso 15 9 67 1014 10 S/SO 35.2
Oggi h: 10:20 nuvoloso Nuvoloso 15 10 72 1015 10 S 25.9
Oggi h: 09:50 sereno Sereno 14 9 71 1015 10 S 29.6
Oggi h: 09:22 sereno Sereno 13 9 76 1015 10 S 24
Oggi h: 08:50 sereno Sereno 12 9 81 1015 10 S 20.3
Oggi h: 08:20 sereno Sereno 11 8 81 1015 10 S 20.3
Oggi h: 07:50 sereno Sereno 11 8 81 1015 10 S 20.3
Oggi h: 07:20 sereno Sereno 11 8 81 1015 10 S/SO 24
Oggi h: 06:50 sereno Sereno 10 8 87 1016 10 S/SO 20.3
Oggi h: 05:50 molto_nuvoloso Molto Nuvoloso 10 7 81 1015 10 S/SO 24
Oggi h: 03:50 sereno Sereno 10 7 81 1015 10 S/SO 18.5
Oggi h: 02:50 sereno Sereno 10 7 81 1015 10 SO 16.7
Oggi h: 01:50 sereno Sereno 10 7 81 1015 10 S/SO 18.5
Oggi h: 00:50 sereno Sereno 11 7 76 1015 10 S/SO 20.3
Ieri h: 23:50 sereno Sereno 11 7 76 1015 10 S/SO 24
Ieri h: 22:50 sereno Sereno 11 7 76 1014 10 S/SO 22.2
Ieri h: 20:50 sereno Sereno 13 6 62 1013 10 S/SO 22.2
Ieri h: 19:50 sereno Sereno 13 7 66 1012 10 SO 16.7
Ieri h: 18:50 sereno Sereno 14 6 58 1011 10 SO 20.3
Ieri h: 17:50 poco_nuvoloso Poco Nuvoloso 15 7 58 1010 10 SO 25.9
Ieri h: 17:20 poco_nuvoloso Poco Nuvoloso 16 6 51 1010 10 O/SO 25.9
Ieri h: 16:50 poco_nuvoloso Poco Nuvoloso 16 7 55 1009 10 SO 29.6
Ieri h: 16:20 nuvoloso Nuvoloso 16 6 51 1009 10 SO 31.5
Ieri h: 15:50 poco_nuvoloso Poco Nuvoloso 16 7 55 1009 10 SO 29.6
Ieri h: 14:50 poco_nuvoloso Poco Nuvoloso 16 7 55 1008 10 O/SO 31.5